[[{"header":{"parameterUnit":"m.s-1","parameterCategory":1,"la1":30.2991,"la2":30.254,"lo1":-89.0895,"lo2":-89.0444,"dy":0.0017,"dx":0.0017,"nx":28,"ny":28,"refTime":"2024-06-02T09:00:00:Z","depth":0,"parameterNumber":2,"parameterNumberName":"U-component_of_WINDS"},"data":[0,0,0,0,0,0,0,0,0,0,0,0,0,0,0,0,0,0,0,0,0,0,0,0,0,0,0,0,0,0,0,0,0,0,0,0,0,0,0,0,0,0,0,0,0,0,0,0,0,0,0,0,0,0,0,0,0,0,-0.3018,-0.3018,0,-0.3036,-0.3036,-0.3036,-0.3103,-0.3104,-0.3106,-0.3107,-0.3119,-0.3118,-0.3117,0,0,0,0,0,0,0,0,0,0,0,0,0,-0.3036,-0.3035,-0.3018,-0.3018,-0.3018,-0.3036,-0.3036,-0.3036,-0.3103,-0.3104,-0.3106,-0.3108,-0.3119,-0.3118,-0.3117,0,0,0,0,0,0,0,0,0,0,0,0,0,-0.3038,-0.3035,-0.3017,-0.3053,-0.3057,-0.3036,-0.3036,-0.3036,-0.3102,-0.3104,-0.3107,-0.3109,-0.312,-0.3118,-0.3117,-0.306,0,0,-0.3111,-0.3111,0,0,0,0,0,0,0,0,-0.3038,-0.3037,-0.3048,-0.3051,-0.3055,-0.307,-0.3047,-0.3044,-0.3102,-0.3085,-0.3107,-0.311,-0.31,-0.31,-0.3098,-0.3061,-0.3061,-0.3111,-0.311,-0.311,-0.3109,0,0,0,0,0,0,0,-0.3037,-0.3037,-0.3025,-0.3048,-0.3052,-0.3067,-0.307,-0.3047,-0.3079,-0.3086,-0.3091,-0.3093,-0.3102,-0.31,-0.3099,-0.3061,-0.3111,-0.311,-0.3109,-0.3108,-0.2981,-0.2978,0,0,0,0,0,0,-0.3033,-0.3036,-0.3024,-0.3025,-0.3052,-0.3065,-0.3068,-0.3062,-0.308,-0.3085,-0.3091,-0.3096,-0.3102,-0.3101,-0.31,-0.3036,-0.311,-0.3108,-0.3107,-0.2983,-0.298,-0.2978,0,0,0,0,0,0,-0.3033,-0.3031,-0.3023,-0.3032,-0.3032,-0.3062,-0.3055,-0.3061,-0.3059,-0.3083,-0.3089,-0.3083,-0.3103,-0.3102,-0.3071,-0.3038,-0.3107,-0.3106,-0.2986,-0.2982,-0.2979,-0.2908,0,0,0,0,0,0,-0.3033,-0.3031,-0.3011,-0.3031,-0.3032,-0.2995,-0.3053,-0.306,-0.3057,-0.3064,-0.3077,-0.3081,-0.3105,-0.3073,-0.3069,-0.3037,-0.3104,-0.2989,-0.2984,-0.298,-0.2913,-0.2902,-0.2893,0,0,0,0,0,-0.3034,-0.2988,-0.3009,-0.3007,-0.3007,-0.2993,-0.2993,-0.3023,-0.3054,-0.3033,-0.3049,-0.3081,-0.3042,-0.3069,-0.3065,-0.3032,-0.2991,-0.2986,-0.298,-0.2918,-0.2904,-0.2893,0,0,0,0,0,0,-0.2959,-0.2991,-0.3015,-0.2975,-0.2981,-0.3004,-0.2979,-0.3008,-0.3003,-0.3009,-0.3046,-0.3048,-0.3011,-0.3019,-0.3048,-0.2979,-0.3022,-0.3016,-0.2976,-0.2963,-0.2953,-0.2952,-0.3103,0,0,0,0,0,-0.2938,-0.2926,-0.2954,-0.2915,-0.2918,-0.2948,-0.2942,-0.2966,-0.2973,-0.2975,-0.2988,-0.2992,-0.2981,-0.2973,-0.2964,-0.2915,-0.2919,-0.2891,-0.2881,-0.2872,-0.2866,-0.2842,-0.283,-0.296,-0.296,-0.296,0,0,-0.2894,-0.291,-0.29,-0.2901,-0.2908,-0.2894,-0.2949,-0.293,-0.2919,-0.2971,-0.2943,-0.2953,-0.296,-0.292,-0.2903,-0.2925,-0.2831,-0.2865,-0.2858,-0.2857,-0.2835,-0.2823,-0.2812,-0.2956,-0.2957,-0.2958,0,0,-0.2807,-0.2818,-0.2788,-0.2796,-0.2808,-0.2829,-0.2822,-0.2841,-0.2851,-0.2824,-0.2864,-0.285,-0.283,-0.2834,-0.2833,-0.2751,-0.278,-0.2747,-0.2693,-0.267,-0.266,-0.2651,-0.2622,-0.2611,-0.2741,-0.2741,-0.2741,0,-0.275,-0.2731,-0.2768,-0.2748,-0.2748,-0.2798,-0.2768,-0.2773,-0.278,-0.2778,-0.2803,-0.2781,-0.2789,-0.2752,-0.2732,-0.273,-0.2722,-0.2745,-0.2659,-0.265,-0.2642,-0.2615,-0.2604,-0.2737,-0.2737,-0.2738,-0.2738,0,-0.2661,-0.2647,-0.2621,-0.2631,-0.2628,-0.2602,-0.2635,-0.2627,-0.2652,-0.267,-0.2643,-0.2655,-0.265,-0.2643,-0.2665,-0.2609,-0.2623,-0.2653,-0.2696,-0.2625,-0.26,-0.259,-0.2731,-0.2732,-0.2734,-0.2735,0,0,-0.2523,-0.2557,-0.2547,-0.2553,-0.2572,-0.2561,-0.2539,-0.2537,-0.253,-0.2534,-0.2516,-0.25,-0.2529,-0.2528,-0.2552,-0.2531,-0.2467,-0.2564,-0.2565,-0.2545,-0.2406,-0.2383,-0.237,-0.2487,-0.2485,-0.2483,-0.2406,0,-0.244,-0.2406,-0.2441,-0.2398,-0.2386,-0.2436,-0.2416,-0.2425,-0.2442,-0.2433,-0.2451,-0.244,-0.2479,-0.2479,-0.2461,-0.2478,-0.2439,-0.2484,-0.2469,-0.2468,-0.2465,-0.2357,-0.2332,-0.2258,-0.2396,-0.2395,-0.2393,0,-0.2338,-0.2342,-0.2299,-0.2324,-0.232,-0.2302,-0.2305,-0.2296,-0.2307,-0.2321,-0.2322,-0.2353,-0.2332,-0.2376,-0.2347,-0.2377,-0.2373,-0.2381,-0.2379,-0.2377,-0.2425,-0.2353,-0.2235,-0.2223,-0.2378,-0.2379,-0.2381,0,-0.2243,-0.2236,-0.2211,-0.2214,-0.2242,-0.2228,-0.2239,-0.2253,-0.2251,-0.2253,-0.2252,-0.225,-0.2248,-0.2246,-0.2275,-0.2304,-0.2243,-0.2289,-0.2253,-0.2252,-0.2236,-0.2236,-0.2115,-0.2234,-0.2235,-0.2235,-0.2235,0,-0.2146,-0.2118,-0.2169,-0.2153,-0.2123,-0.2164,-0.2133,-0.2148,-0.2161,-0.2148,-0.219,-0.2176,-0.2216,-0.2207,-0.2229,-0.2203,-0.2201,-0.2211,-0.2217,-0.2207,-0.2206,-0.2204,-0.221,-0.2232,-0.2233,-0.2233,-0.2234,0,-0.2033,-0.2067,-0.2042,-0.2072,-0.2079,-0.2055,-0.208,-0.2066,-0.2088,-0.2071,-0.2069,-0.2102,-0.2093,-0.2123,-0.2118,-0.2134,-0.2094,-0.2109,-0.2091,-0.2095,-0.2058,-0.2061,-0.1931,-0.1916,-0.2045,-0.2043,-0.2042,0,-0.1969,-0.1949,-0.1978,-0.1974,-0.1984,-0.1976,-0.1975,-0.2015,-0.2012,-0.2025,-0.2009,-0.2006,-0.2004,-0.1988,-0.201,-0.2008,-0.2022,-0.1977,-0.2022,-0.2013,-0.2021,-0.2022,-0.202,-0.1967,-0.1965,-0.1964,-0.1963,0,-0.1851,-0.187,-0.1868,-0.1873,-0.1872,-0.1877,-0.1884,-0.1878,-0.1921,-0.1915,-0.1909,-0.1908,-0.1906,-0.1901,-0.1904,-0.1913,-0.1945,-0.195,-0.1941,-0.193,-0.192,-0.1925,-0.2065,-0.1952,-0.1953,-0.1954,-0.1954,-0.1955,-0.1761,-0.1747,-0.1766,-0.1763,-0.1774,-0.1781,-0.177,-0.1792,-0.1788,-0.1791,-0.1815,-0.1804,-0.1818,-0.1825,-0.1832,-0.1824,-0.1844,-0.1832,-0.1829,-0.1825,-0.1818,-0.1923,-0.1824,-0.1824,-0.1825,-0.1825,-0.1825,0,-0.1646,-0.1662,-0.1659,-0.167,-0.1668,-0.1702,-0.1713,-0.1709,-0.17,-0.1711,-0.1711,-0.1704,-0.1701,-0.1724,-0.1723,-0.1712,-0.1727,-0.1711,-0.1711,-0.1713,-0.18,-0.1807,-0.1699,-0.1699,-0.1699,-0.1699,-0.1699,-0.1699,-0.1585,-0.1563,-0.1584,-0.1569,-0.1584,-0.1577,-0.158,-0.1587,-0.1597,-0.1588,-0.1587,-0.1604,-0.162,-0.1621,-0.162,-0.1627,-0.1624,-0.1603,-0.1614,-0.1694,-0.1707,-0.1718,-0.1726,-0.1602,-0.1602,-0.1529,-0.1528,-0.1527]},{"header":{"parameterUnit":"m.s-1","parameterCategory":1,"la1":30.2991,"la2":30.254,"lo1":-89.0895,"lo2":-89.0444,"dy":0.0017,"dx":0.0017,"nx":28,"ny":28,"refTime":"2024-06-02T09:00:00:Z","depth":0,"parameterNumber":3,"parameterNumberName":"V-component_of_WINDS"},"data":[0,0,0,0,0,0,0,0,0,0,0,0,0,0,0,0,0,0,0,0,0,0,0,0,0,0,0,0,0,0,0,0,0,0,0,0,0,0,0,0,0,0,0,0,0,0,0,0,0,0,0,0,0,0,0,0,0,0,4.3033,4.3034,0,4.3153,4.3154,4.3155,4.3061,4.3057,4.3053,4.3049,4.3162,4.3169,4.3176,0,0,0,0,0,0,0,0,0,0,0,0,0,4.2712,4.2718,4.3033,4.3034,4.3036,4.3152,4.3154,4.3156,4.3062,4.3057,4.3052,4.3048,4.316,4.3168,4.3176,0,0,0,0,0,0,0,0,0,0,0,0,0,4.2843,4.272,4.3033,4.3003,4.3002,4.3152,4.3154,4.3156,4.3063,4.3057,4.3051,4.3045,4.3158,4.3167,4.3177,4.336,0,0,4.3208,4.3213,0,0,0,0,0,0,0,0,4.2836,4.2855,4.3006,4.3006,4.3004,4.3086,4.3082,4.3224,4.3064,4.3039,4.3049,4.3042,4.3141,4.3152,4.3188,4.3365,4.337,4.3209,4.3215,4.322,4.3222,0,0,0,0,0,0,0,4.2827,4.2849,4.308,4.3008,4.3007,4.298,4.2992,4.3108,4.3122,4.3041,4.3035,4.3051,4.3139,4.3178,4.3189,4.3371,4.3209,4.3218,4.3224,4.3228,4.37,4.3706,0,0,0,0,0,0,4.2822,4.2842,4.3076,4.3083,4.2904,4.2991,4.3005,4.3066,4.3121,4.3124,4.3056,4.3046,4.3164,4.3178,4.3193,4.3408,4.3219,4.3229,4.3235,4.3694,4.3701,4.3708,0,0,0,0,0,0,4.2816,4.2844,4.3071,4.2961,4.2988,4.3003,4.3072,4.3071,4.311,4.3132,4.3133,4.3093,4.316,4.3179,4.3319,4.3411,4.3234,4.3243,4.3686,4.3696,4.3705,4.3841,0,0,0,0,0,0,4.2807,4.2842,4.2915,4.2964,4.2995,4.3199,4.3078,4.3078,4.3129,4.3117,4.3167,4.317,4.3156,4.3304,4.3329,4.3421,4.3251,4.3678,4.369,4.3702,4.3828,4.3854,4.3876,0,0,0,0,0,4.2796,4.2947,4.2919,4.2947,4.3086,4.3205,4.3222,4.3206,4.3137,4.3207,4.3221,4.3168,4.3397,4.3319,4.3346,4.3443,4.3672,4.3687,4.3701,4.3817,4.3849,4.3876,0,0,0,0,0,0,4.2905,4.2953,4.2922,4.3095,4.3147,4.3189,4.3278,4.324,4.331,4.3296,4.327,4.3282,4.3429,4.345,4.3363,4.362,4.3523,4.3543,4.3602,4.3632,4.3656,4.3647,4.3259,0,0,0,0,0,4.295,4.3046,4.3081,4.3229,4.3257,4.3263,4.3314,4.3297,4.3349,4.3369,4.3393,4.3442,4.3524,4.3579,4.3657,4.383,4.3838,4.391,4.3934,4.3954,4.3971,4.4062,4.4093,4.3756,4.3756,4.3756,0,0,4.3042,4.308,4.3142,4.3252,4.329,4.3386,4.3282,4.3389,4.3458,4.3384,4.3519,4.3537,4.359,4.3747,4.3817,4.3769,4.4066,4.3972,4.3988,4.3995,4.408,4.4112,4.414,4.3766,4.3764,4.3763,0,0,4.326,4.3299,4.3426,4.3467,4.3527,4.353,4.356,4.3608,4.3618,4.3753,4.3699,4.3779,4.3923,4.3962,4.4,4.423,4.4183,4.4255,4.438,4.4469,4.4495,4.4518,4.4598,4.4627,4.4273,4.4273,4.4274,0,4.3366,4.3513,4.3495,4.3606,4.3654,4.3594,4.372,4.3759,4.384,4.3873,4.3818,4.3995,4.4027,4.4191,4.4247,4.4281,4.4311,4.4249,4.4493,4.4516,4.4538,4.4614,4.4644,4.4282,4.4281,4.428,4.4279,0,4.3639,4.3741,4.3835,4.3918,4.3977,4.4094,4.4091,4.4152,4.4129,4.4137,4.4272,4.4307,4.4389,4.4427,4.4405,4.4587,4.4555,4.4498,4.4398,4.4579,4.4649,4.4678,4.4294,4.4291,4.4288,4.4286,0,0,4.393,4.4001,4.4036,4.4071,4.4132,4.4208,4.4321,4.4404,4.4456,4.4512,4.4604,4.4726,4.4672,4.4716,4.4698,4.4776,4.4952,4.4707,4.4708,4.475,4.5151,4.5194,4.5228,4.4921,4.4927,4.4931,4.5146,0,4.4149,4.435,4.4336,4.4523,4.4615,4.4558,4.4655,4.4701,4.471,4.4786,4.4793,4.488,4.4804,4.483,4.4904,4.4915,4.5032,4.4899,4.5003,4.5007,4.4992,4.5265,4.5311,4.5513,4.5174,4.5179,4.5182,0,4.4432,4.4501,4.4699,4.4743,4.4781,4.487,4.4943,4.5018,4.5066,4.5067,4.5116,4.5083,4.5193,4.5092,4.524,4.515,4.5191,4.5202,4.5209,4.5218,4.5105,4.528,4.5577,4.5607,4.5226,4.5222,4.5219,0,4.4622,4.4764,4.49,4.4932,4.4989,4.5052,4.5077,4.512,4.517,4.5233,4.5264,4.5338,4.5378,4.5434,4.5421,4.5349,4.5572,4.547,4.5572,4.5573,4.5622,4.5619,4.5929,4.565,4.565,4.5649,4.5649,0,4.4867,4.499,4.4986,4.507,4.5203,4.5185,4.5316,4.5334,4.5373,4.5455,4.5409,4.5486,4.5465,4.5541,4.5531,4.5653,4.5672,4.5673,4.5669,4.5677,4.5677,4.5703,4.5688,4.5657,4.5655,4.5654,4.5652,0,4.5102,4.5106,4.525,4.5291,4.5304,4.5401,4.5434,4.5511,4.5516,4.5621,4.5644,4.565,4.5737,4.573,4.5826,4.5819,4.5971,4.595,4.5955,4.5951,4.6053,4.6043,4.639,4.6434,4.6128,4.6131,4.6133,0,4.5259,4.5352,4.5404,4.5458,4.5488,4.5575,4.5626,4.561,4.5664,4.5725,4.5794,4.5876,4.5942,4.6082,4.6093,4.6166,4.6145,4.6262,4.6156,4.6161,4.6145,4.614,4.6148,4.6283,4.6286,4.6289,4.6291,0,4.5535,4.5531,4.5609,4.5687,4.575,4.5809,4.5863,4.5909,4.5897,4.5959,4.6049,4.61,4.6199,4.6281,4.6349,4.6371,4.6329,4.6325,4.6352,4.6361,4.636,4.636,4.6011,4.6317,4.6314,4.6312,4.6311,4.631,4.5734,4.5814,4.5863,4.5949,4.5989,4.604,4.6114,4.6128,4.6203,4.6285,4.6269,4.6369,4.6411,4.65,4.6528,4.6603,4.6561,4.6601,4.6611,4.6621,4.6632,4.6349,4.6616,4.6615,4.6614,4.6614,4.6613,0,4.6007,4.6035,4.6116,4.6194,4.6261,4.6218,4.6275,4.6333,4.6423,4.6467,4.6533,4.6634,4.6712,4.6729,4.6803,4.686,4.6842,4.6879,4.6875,4.688,4.6667,4.6635,4.6893,4.6893,4.6892,4.6892,4.6892,4.6892,4.6156,4.6288,4.629,4.6438,4.6464,4.6565,4.6601,4.6646,4.6681,4.6798,4.6864,4.6875,4.6907,4.6983,4.7052,4.7054,4.7082,4.7128,4.7123,4.6923,4.6895,4.6868,4.6839,4.7135,4.7135,4.7329,4.7331,4.7332]}]]